Location: Luz Observatory
(34.5000°N, 117.2833°W)
Time: 14:46:49
(UTC-08:00)

Hubble Space Telescope - Visible Passes

Search period start: 27 February 2017 00:00
Search period end: 09 March 2017 00:00
Orbit: 538 x 542 km, 28.5° (Epoch: 26 February)

Date Brightness Start Highest point End Pass type
(mag) Time Alt. Az. Time Alt. Az. Time Alt. Az.
27 Feb 1.7 19:09:52 10° WSW 19:13:37 34° S 19:14:18 32° SSE visible
28 Feb 1.8 18:59:49 10° WSW 19:03:36 35° S 19:04:59 27° SE visible
01 Mar 1.8 18:49:47 10° WSW 18:53:34 35° S 18:55:39 21° SE visible
01 Mar 3.9 20:31:01 10° WSW 20:31:02 10° WSW 20:31:02 10° WSW visible
02 Mar 1.9 18:39:47 10° WSW 18:43:33 35° S 18:46:19 16° SE visible
02 Mar 3.7 20:21:10 10° WSW 20:21:42 12° WSW 20:21:42 12° WSW visible
03 Mar 2.0 18:29:48 10° WSW 18:33:32 33° S 18:37:01 11° ESE visible
03 Mar 3.4 20:11:23 10° WSW 20:12:24 14° SW 20:12:24 14° SW visible
04 Mar 2.1 18:19:50 10° WSW 18:23:30 31° S 18:27:10 10° SE visible
04 Mar 3.3 20:01:44 10° WSW 20:03:08 14° SW 20:03:08 14° SW visible
05 Mar 2.3 18:09:53 10° WSW 18:13:27 28° S 18:17:02 10° SE visible
05 Mar 3.3 19:52:18 10° SW 19:53:55 13° SSW 19:53:55 13° SSW visible
